Regional Weather Roundup
Issued by NWS

Home | Current Version | Previous Version | Graphics & Text | Print | Product List | Glossary On
Versions: 1 2 3 4 5 6 7 8 9 10 11 12 13 14 15 16 17 18 19 20 21 22 23 24 25 26 27 28 29 30 31 32 33 34 35 36 37 38 39 40 41 42 43 44 45 46 47 48 49 50
606
ASUS43 KFSD 161802
RWRSD

WEATHER ROUNDUP FOR SOUTH DAKOTA
NATIONAL WEATHER SERVICE SIOUX FALLS SD
100 PM CDT MON OCT 16 2017

NOTE: "FAIR" INDICATES FEW OR NO CLOUDS BELOW 12,000 FEET WITH NO
SIGNIFICANT WEATHER AND/OR OBSTRUCTIONS TO VISIBILITY.


SDZ001>005-009-010-012>017-161900-
NORTHWEST AND NORTH CENTRAL SOUTH DAKOTA

CITY           SKY/WX    TMP DP  RH WIND       PRES   REMARKS
BUFFALO          N/A     66  28  24 W22       30.02R
FAITH            N/A     70  30  22 SW12      30.06S
MOBRIDGE       SUNNY     65  38  36 SW10      30.00F
$$

SDZ012>016-024>037-041>051-057-063-072>074-161900-
SOUTHWEST AND SOUTH CENTRAL SOUTH DAKOTA

CITY           SKY/WX    TMP DP  RH WIND       PRES   REMARKS
RAPID CTY ARPT SUNNY     71  29  21 W5        30.11F
PIERRE         CLOUDY    58  38  47 SW6       30.06F
CUSTER         SUNNY     64  20  18 NE10      30.19S
ELLSWORTH AFB  SUNNY     72  28  19 NW5       30.10F
PHILIP         SUNNY     68  35  29 SW6       30.08F
PINE RIDGE     SUNNY     70  25  18 W9        30.14F
SPEARFISH      FAIR      68  27  21 NW8       30.14S
WINNER         FAIR      69  41  36 SW8       30.09F
$$

SDZ004>011-016>023-039-040-161900-
NORTHEAST SOUTH DAKOTA

CITY           SKY/WX    TMP DP  RH WIND       PRES   REMARKS
ABERDEEN       SUNNY     61  39  44 S12       30.03F
WATERTOWN      SUNNY     63  37  38 S16G24    30.05F
BROOKINGS      SUNNY     64  36  35 S18       30.09F
SISSETON         N/A     67  37  33 SW22G28   30.01F
$$

SDZ017-020-022-023-036>040-048>070-161900-
SOUTHEAST SOUTH DAKOTA

CITY           SKY/WX    TMP DP  RH WIND       PRES   REMARKS
SIOUX FALLS    MOSUNNY   66  40  38 S15       30.13F
HURON          SUNNY     62  38  40 S13       30.06F
MITCHELL       SUNNY     65  36  34 SW12      30.09F
YANKTON        SUNNY     68  36  30 S16       30.12F
$$

ABBREVIATIONS USED IN REMARKS
   TC - TEMPERATURE IN CELSIUS
  WCI - WIND CHILL INDEX
   HX - HEAT INDEX
  VSB - VISIBILITY





USA.gov is the U.S. government's official web portal to all federal, state and local government web resources and services.